M   1.70397531 +/- 0.0036514        (J2000 ecliptic)
n   0.32096308 +/- 0.00051587       Peri.  356.98289 +/- 0.0047132
a   2.11267485 +/- 0.00226369       Node   256.66230 +/- 0.0014637
e   0.5010596 +/- 0.000518735       Incl.    9.95940 +/- 0.0067209
P   3.07                   H 24.4   G  0.15   U  7.7  
q 1.05409868 +/- 3.35859e-5    Q 3.17125102 +/- 0.00450062
From 83 observations 2021 June 11-12 (41.0 hr); mean residual 0".40
Residuals in arcseconds: 
210611 G96  .27-  .47-    210611 L01  .15-  .36+    210612 858  .21-  .15-    
210611 G96  .22+  .01-    210611 203  .08+  .13+    210612 858  .10+  .05-    
210611 G96  .22-  .77-    210611 160  .06-  .26-    210612 858  .06-  .16-    
210611 I52  .18+  .35-    210611 L01  .44-  .23+    210612 B74  .72+  .44-    
210611 I52  .18-  .26-    210611 L01  .45+  .12-    210612 B74  .21+  .14-    
210611 I52  .20+  .36-    210611 L01  .01-  .83+    210612 B74  .12+  .19-    
210611 I52  .02-  .37-    210611 160  1.0+  .17-    210612 B74  .20-  .11+    
210611 F51  .30+  .01+    210611 L01  .18+  .26-    210612 L06  .47+  .30-    
210611 F51  .33+  .01+    210611 160  1.0-  .33+    210612 L06  .69+  .24-    
210611 474  .03-  .02-    210611 204  .17-  .03-    210612 J69  .26-  1.1+    
210611 474  .07+  .10+    210611 958  .09+  .42-    210612 J69  1.1+  .47-    
210611 474  .00   .02-    210611 595  .70-  .83+    210612 J69  .14-  .27+    
210611 474  .23+  .02-    210611 204  .11-  .09-    210612 X74  .32-  .42-    
210611 E23  .29+  .59+    210611 958  1.0-  .34+    210612 X74  .04+  .11-    
210611 E23  .34+  .05-    210611 595  .35+  .34+    210612 X74  .24-  .21-    
210611 E23  1.4+  .73-    210611 204  .40+  .14-    210612 I93  .08+  .05-    
210611 N51  1.2-  .79+    210611 958  .61+  .58-    210612 I93  .32+  .39+    
210611 N51  .92-  .83+    210612 H21  .11+  .13+    210612 I93  .45+  .35+    
210611 203  .57-  .09-    210612 H21  .25+  .15-    210612 K38  .19+  .35+    
210611 A17  .48+  .66-    210612 H21  .00   .19-    210612 J95  .21-  .24+    
210611 K83  .15+  .20+    210612 H21  .05+  .07-    210612 Z99  .03+  .09-    
210611 K83  .20-  .15-    210612 V01  .47-  .07+    210612 J95  .20-  .07+    
210611 A17  1.0-  .02+    210612 I52  .13+  .02+    210612 Z99  .29+  .02-    
210611 203  .43-  .07-    210612 I52  .23+  .09+    210612 J95  .10-  .33-    
210611 K83  .06+  .00     210612 V01  .30+  .19+    210612 Z99  .01-  .05-    
210611 A17  .13-  .32+    210612 I52  .01-  .07-    210612 K38  .35+  .20+    
210611 160  .27+  .59+    210612 I52  .32+  .05+    210612 K38  .45+  .76-    
210611 160  .05-  .16+    210612 V01  .35+  .29+    

Ephemerides (geocentric):
Date (UTC) HH   RA              Dec         delta   r     elong  mag " sig PA
---- -- -- --  -------------   -----------  ------ ------ -----  --- ---- ---
2021 06 13 01  15 31 20.451   -03 23 59.89  .04918 1.0568 146.1 19.3 .113 178
2021 06 13 02  15 32 08.699   -03 16 18.91  .04919 1.0568 146.2 19.3 .114 177
2021 06 13 03  15 32 56.915   -03 08 38.14  .04921 1.0569 146.2 19.3 .114 176
2021 06 13 04  15 33 45.096   -03 00 57.60  .04922 1.0569 146.3 19.3 .114 175
2021 06 13 05  15 34 33.243   -02 53 17.31  .04924 1.0569 146.3 19.3 .114 175
2021 06 13 06  15 35 21.354   -02 45 37.29  .04926 1.0570 146.3 19.3 .115 174
2021 06 13 07  15 36 09.427   -02 37 57.56  .04927 1.0570 146.4 19.3 .115 173
2021 06 13 08  15 36 57.461   -02 30 18.16  .04929 1.0570 146.4 19.3 .115 172
2021 06 13 09  15 37 45.456   -02 22 39.09  .04931 1.0571 146.4 19.3 .115 171
2021 06 13 10  15 38 33.410   -02 15 00.39  .04933 1.0571 146.5 19.3 .115 169
2021 06 13 11  15 39 21.321   -02 07 22.07  .04936 1.0571 146.5 19.3 .115 168
2021 06 13 12  15 40 09.189   -01 59 44.15  .04938 1.0572 146.5 19.3 .116 167
2021 06 13 13  15 40 57.012   -01 52 06.66  .04940 1.0572 146.6 19.3 .116 166
2021 06 13 14  15 41 44.790   -01 44 29.62  .04942 1.0573 146.6 19.3 .116 165
2021 06 13 15  15 42 32.521   -01 36 53.05  .04945 1.0573 146.6 19.3 .116 164
2021 06 13 16  15 43 20.204   -01 29 16.97  .04948 1.0573 146.7 19.3 .116 162
2021 06 13 17  15 44 07.837   -01 21 41.41  .04950 1.0574 146.7 19.3 .117 161
2021 06 13 18  15 44 55.421   -01 14 06.37  .04953 1.0574 146.7 19.3 .117 160
2021 06 13 19  15 45 42.953   -01 06 31.89  .04956 1.0575 146.7 19.3 .117 159
2021 06 13 20  15 46 30.432   -00 58 57.99  .04959 1.0575 146.8 19.3 .117 157
2021 06 13 21  15 47 17.858   -00 51 24.68  .04962 1.0575 146.8 19.3 .118 156
2021 06 13 22  15 48 05.229   -00 43 51.99  .04965 1.0576 146.8 19.3 .118 154
2021 06 13 23  15 48 52.545   -00 36 19.94  .04968 1.0576 146.8 19.3 .119 153
2021 06 14 00  15 49 39.803   -00 28 48.54  .04971 1.0577 146.8 19.3 .119 152
2021 06 14 01  15 50 27.003   -00 21 17.82  .04975 1.0577 146.9 19.3 .120 150
2021 06 14 02  15 51 14.145   -00 13 47.80  .04978 1.0577 146.9 19.3 .120 149
2021 06 14 03  15 52 01.226   -00 06 18.49  .04982 1.0578 146.9 19.3 .121 147
2021 06 14 04  15 52 48.246   +00 01 10.08  .04985 1.0578 146.9 19.3 .121 146
2021 06 14 05  15 53 35.204   +00 08 37.90  .04989 1.0579 146.9 19.3 .122 144
2021 06 14 06  15 54 22.098   +00 16 04.94  .04993 1.0579 146.9 19.3 .123 143
2021 06 14 07  15 55 08.929   +00 23 31.18  .04997 1.0579 146.9 19.3 .124 141
2021 06 14 08  15 55 55.694   +00 30 56.62  .05001 1.0580 146.9 19.3 .125 140
2021 06 14 09  15 56 42.392   +00 38 21.22  .05005 1.0580 147.0 19.3 .126 138
2021 06 14 10  15 57 29.024   +00 45 44.98  .05009 1.0581 147.0 19.3 .127 136
2021 06 14 11  15 58 15.587   +00 53 07.87  .05013 1.0581 147.0 19.3 .129 135
2021 06 14 12  15 59 02.081   +01 00 29.87  .05017 1.0582 147.0 19.3 .130 133
2021 06 14 13  15 59 48.504   +01 07 50.97  .05022 1.0582 147.0 19.3 .131 132
2021 06 14 14  16 00 34.857   +01 15 11.14  .05026 1.0582 147.0 19.3 .133 130
2021 06 14 15  16 01 21.137   +01 22 30.38  .05031 1.0583 147.0 19.3 .135 129
2021 06 14 16  16 02 07.344   +01 29 48.66  .05035 1.0583 147.0 19.3 .136 127
2021 06 14 17  16 02 53.477   +01 37 05.98  .05040 1.0584 147.0 19.3 .138 126
2021 06 14 18  16 03 39.536   +01 44 22.30  .05045 1.0584 147.0 19.3 .140 124
2021 06 14 19  16 04 25.518   +01 51 37.61  .05049 1.0585 147.0 19.3 .142 123
2021 06 14 20  16 05 11.424   +01 58 51.91  .05054 1.0585 147.0 19.3 .144 121
2021 06 14 21  16 05 57.252   +02 06 05.16  .05059 1.0586 147.0 19.3 .146 120
2021 06 14 22  16 06 43.001   +02 13 17.36  .05065 1.0586 147.0 19.3 .149 119
2021 06 14 23  16 07 28.671   +02 20 28.49  .05070 1.0586 147.0 19.3 .151 117
2021 06 15 00  16 08 14.261   +02 27 38.54  .05075 1.0587 147.0 19.3 .154 116